Probability
0 0 0 0 0 0 0 0 0 0 0 0 0 0 0 0 0 0 0 0 0 0 0 0 0 0 0 0 0 0 0 0 0 0 0 0 0 0 0 0 0 0 0 0
0 0 0 0 0 0 0 0 0 0 0 0 0 0 0 0 0 0 0 0 0 0 0 0 0 0 0 0 0 0 0 0 0 0 0 0 0 0 0 0 0 0 0 0
0 0 0 0 0 0 0 0 0 0 0 0 0 0 0 0 0 0 0 0 0 0 0 0 0 0 0 0 0 0 0 0 0 0 0 0 0 0 0 0 0 0 0 0
0 0 0 0 0 0 0 0 0 0 0 0 0 0 0 0 0 0 0 0 0 0 0 0 0 0 0 0 0 0 0 0 0 0 0 0 0 0 0 0 0 0 0 0
0 0 0 0 0 0 0 0 0 0 0 0 0 0 0 0 0 0 0 0 0 0 0 0 0 0 0 0 0 0 0 0 0 0 0 0 0 0 0 0 0 0 0 0
0 0 0 0 0 0 0 0 0 0 0 0 0 0 0 0 0 0 0 0 0 0 0 0 0 0 0 0 0 0 0 0 0 0 0 0 0 0 0 0 0 0 0 0
0 0 0 0 0 0 0 0 0 0 0 0 0 0 0 0 0 0 0 0 0 0 0 0 0 0 0 0 0 0 0 0 0 0 0 0 0 0 0 0 0 0 0 0
0 0 0 0 0 0 0 0 0 0 0 0 0 0 0 0 0 0 0 0 0 0 0 0 0 0 0 0 0 0 0 0 0 0 0 0 0 0 0 0 0 0 0 0
0 0 0 0 0 0 0 0 0 0 0 0 0 0 0 0 0 0 0 0 0 0 0 0 0 0 0 0 0 0 0 0 0 0 0 0 0 0 0 0 0 0 0 0
0 0 0 0 0 0 0 0 0 0 0 0 0 0 0 0 0 0 0 0 0 0 0 0 0 0 0 0 0 0 0 0 0 0 0 0 0 0 0 0 0 0 0 0
0 0 0 0 0 0 0 0 0 0 0 0 0 0 0 0 0 0 0 0 0 0 0 0 0 0 0 0 0 0 0 0 0 0 0 0 0 0 0 0 0 0 0 0
0 0 0 0 0 0 0 0 0 0 0 0 0 0 0 0 0 0 0 0 0 0 0 0 0 0 0 0 0 0 0 0 0 0 0 0 0 0 0 0 0 0 0 0
0 0 0 0 0 0 0 0 0 0 0 0 0 0 0 0 0 0 0 0 0 0 0 0 0 0 0 0 0 0 0 0 0 0 0 0 0 0 0 0 0 0 0 0
0 0 0 0 0 0 0 0 0 0 0 0 0 0 0 0 0 0 0 0 0 0 0 0 0 0 0 0 0 0 0 0 0 0 0 0 0 0 0 0 0 0 0 0
0 0 0 0 0 0 0 0 0 0 0 0 0 0 0 0 0 0 0 0 0 0 0 0 0 0 0 0 0 0 0 0 0 0 0 0 0 0 0 0 0 0 0 0
0 0 0 0 0 0 0 0 0 0 0 0 0 0 0 0 0 0 0 0 0 0 0 0 0 0 0 0 0 0 0 0 0 0 0 0 0 0 0 0 0 0 0 0
0 0 0 0 0 0 0 0 0 0 0 0 0 0 0 0 0 0 0 0 0 0 0 0 0 0 0 0 0 0 0 0 0 0 0 0 0 0 0 0 0 0 0 0
0 0 0 0 0 0 0 0 0 0 0 0 0 0 0 0 0 0 0 0 0 0 0 0 0 0 0 0 0 0 0 0 0 0 0 0 0 0 0 0 0 0 0 0
0 0 0 0 0 0 0 0 0 0 0 0 0 0 0 0 0 0 0 0 0 0 0 0 0 0 0 0 0 0 0 0 0 0 0 0 0 0 0 0 0 0 0 0
0 0 0 0 0 0 0 0 0 0 0 0 0 0 0 0 0 0 0 0 0 0 0 0 0 0 0 0 0 0 0 0 0 0 0 0 0 0 0 0 0 0 0 0
0 0 0 0 0 0 0 0 0 0 0 0 0 0 0 0 0 0 0 0 0 0 0 0 0 0 0 0 0 0 0 0 0 0 0 0 0 0 0 0 0 0 0 0
0 0 0 0 0 0 0 0 0 0 0 0 0 0 0 0 0 0 0 0 0 0 0 0 0 0 0 0 0 0 0 0 0 0 0 0 0 0 0 0 0 0 0 0
0 0 0 0 0 0 0 0 0 0 0 0 0 0 0 0 0 0 0 0 0 0 0 0 0 0 0 0 0 0 0 0 0 0 0 0 0 0 0 0 0 0 0 0
0 0 0 0 0 0 0 0 0 0 0 0 0 0 0 0 0 0 0 0 0 0 0 0 0 0 0 0 0 0 0 0 0 0 0 0 0 0 0 0 0 0 0 0
0 0 0 0 0 0 0 0 0 0 0 0 0 0 0 0 0 0 0 0 0 0 0 0 0 0 0 0 0 0 0 0 0 0 0 0 0 0 0 0 0 0 0 0
0 0 0 0 0 0 0 0 0 0 0 0 0 0 0 0 0 0 0 0 0 0 0 0 0 0 0 0 0 0 0 0 0 0 0 0 0 0 0 0 0 0 0 0
0 0 0 0 0 0 0 0 0 0 0 0 0 0 0 0 0 0 0 0 0 0 0 0 0 0 0 0 0 0 0 0 0 0 0 0 0 0 0 0 0 0 0 0
Wind_Speed
5 2 3 5 5 5 7 7 7 6 7 9 7 10 12 13 11 12 14 14 14 14 13 14 14 14 14 15 15 15 15 15 15 15 15 15 15 15 16 16 16 16 16 15
4 1 3 6 7 7 7 6 8 8 8 3 7 9 12 12 10 12 13 13 13 14 14 14 14 14 15 15 15 15 14 14 15 15 15 15 16 15 16 16 16 16 15 15
4 2 6 5 4 8 5 5 5 6 4 5 10 12 13 9 9 12 13 13 13 13 13 13 14 14 15 15 15 14 14 14 15 15 15 16 16 16 16 15 15 15 15 15
5 5 5 3 2 4 4 4 4 5 4 6 9 10 5 4 8 11 11 12 12 12 12 13 13 13 13 14 14 14 14 14 15 15 16 16 16 16 16 14 14 14 15 15
2 5 7 4 5 5 4 3 3 2 3 6 8 9 2 3 6 8 9 10 10 11 12 13 12 13 13 14 14 14 15 15 16 16 17 17 17 16 15 14 14 14 14 15
2 4 6 3 6 4 3 3 5 2 4 6 8 8 5 4 6 7 8 9 10 11 12 12 12 13 13 14 14 15 16 17 17 16 16 16 16 16 14 14 13 13 13 13
5 6 6 5 7 6 3 2 6 2 2 4 4 4 5 5 6 7 9 10 10 11 11 11 12 12 13 14 15 16 16 17 17 16 16 16 15 14 14 13 13 13 13 12
5 6 5 10 9 6 2 6 4 2 0 1 2 2 4 5 7 8 9 10 11 11 12 11 11 12 14 15 16 16 16 16 16 16 15 13 15 14 14 13 13 12 12 12
8 2 4 7 4 4 6 6 4 3 2 1 0 2 3 5 6 7 9 10 10 11 12 11 11 12 14 15 16 16 16 16 16 16 14 14 14 14 13 12 10 10 10 9
6 5 5 7 7 6 6 6 5 5 4 3 2 2 3 4 6 7 8 9 10 11 12 12 13 13 13 14 15 16 17 16 15 15 14 14 12 11 11 11 11 11 9 8
7 3 6 8 8 9 8 8 8 6 5 4 3 2 2 3 5 6 7 8 9 9 11 13 14 13 13 14 15 16 16 15 14 13 14 13 12 11 12 11 13 12 9 8
5 8 8 9 12 11 10 8 8 7 6 5 3 2 1 3 4 6 7 8 9 10 11 13 13 13 14 14 15 16 14 14 12 12 11 11 11 11 14 15 18 18 17 14
4 6 6 11 12 10 9 8 7 6 6 6 4 2 1 3 4 6 7 8 9 11 11 12 12 13 14 14 15 15 15 14 12 11 11 11 11 11 11 12 15 16 16 16
9 10 9 8 9 9 10 10 9 8 6 5 4 2 1 3 5 6 7 8 10 10 10 11 12 13 14 14 15 15 14 13 13 11 11 11 11 11 10 11 10 9 11 14
8 4 9 10 12 11 10 9 9 7 6 5 3 1 1 4 5 6 7 8 9 8 9 10 12 13 14 14 14 14 12 10 11 10 10 10 10 10 9 10 9 9 8 8
9 9 12 13 12 11 10 9 8 8 7 5 3 2 2 4 6 6 6 7 7 9 9 10 11 13 14 13 13 11 10 14 14 10 10 10 10 10 9 9 9 8 8 8
15 12 11 11 12 11 10 8 8 8 7 6 4 2 3 4 5 5 6 7 7 7 8 9 11 13 13 12 12 9 9 10 14 10 9 9 9 9 9 9 8 8 7 9
14 13 13 13 12 12 10 9 8 8 7 5 4 3 2 3 5 7 8 8 7 6 7 10 12 13 12 12 10 8 8 8 9 9 9 9 9 8 8 8 8 8 7 7
11 11 10 10 10 11 10 9 9 8 7 6 5 3 2 3 5 6 7 7 7 8 9 12 17 13 12 12 13 7 8 9 9 9 8 11 9 8 7 8 8 7 7 6
10 11 10 10 10 9 10 9 10 8 7 6 4 3 3 3 4 6 6 5 3 5 10 11 11 10 11 11 13 7 8 9 9 9 9 8 8 8 8 7 7 7 7 6
13 12 11 11 10 9 10 11 10 9 7 6 5 3 2 3 4 4 5 4 4 8 10 11 9 9 10 11 11 7 8 9 9 9 9 9 9 8 8 8 7 7 7 7
12 12 12 11 11 10 9 9 9 9 8 6 5 3 3 3 4 4 3 4 6 11 8 6 7 12 14 12 7 7 8 9 9 9 10 10 10 9 9 9 8 7 7 7
12 11 12 11 11 10 9 8 8 8 8 7 6 4 3 3 3 3 4 4 6 11 7 5 11 16 16 8 7 8 9 10 10 10 11 11 11 10 10 10 8 8 8 8
12 11 10 10 10 11 10 9 8 6 6 5 4 4 3 3 2 2 4 8 10 10 5 8 13 15 12 6 7 8 8 9 10 11 11 11 11 11 11 10 10 9 9 10
11 11 11 12 11 9 9 9 8 6 6 5 5 5 4 3 3 3 4 5 8 8 5 7 11 12 8 6 7 8 8 8 10 11 11 11 12 12 12 12 11 10 10 9
11 10 10 10 8 7 8 9 7 7 6 5 5 4 4 3 3 3 3 4 5 6 5 4 6 7 6 6 7 8 8 9 10 10 12 12 13 13 13 14 17 13 12 11
9 8 7 7 7 7 8 8 8 8 8 7 5 5 4 3 2 2 2 2 3 3 3 4 4 5 5 6 7 7 7 8 9 10 11 11 12 12 14 16 13 13 13 13
Wind_Direction
277 308 269 266 249 223 227 248 267 297 302 326 348 341 337 342 350 348 350 348 346 345 343 341 339 337 335 333 333 332 330 329 330 329 328 328 329 331 331 332 331 329 328 328
264 199 278 265 245 232 233 238 253 280 297 22 336 331 335 348 351 346 346 345 345 343 341 339 337 334 331 330 328 327 325 324 325 326 327 327 327 328 330 331 331 329 329 330
278 315 287 265 222 203 205 212 242 279 325 338 325 335 340 350 349 346 344 343 342 340 336 333 332 329 326 324 322 321 319 319 321 322 324 324 324 325 328 329 329 328 328 329
299 313 287 76 77 193 210 227 233 262 299 323 326 327 347 16 351 344 343 340 337 334 330 328 326 324 320 317 316 317 317 318 321 322 321 322 323 324 325 326 326 325 326 328
274 285 270 147 180 182 215 233 184 238 309 327 331 304 154 53 357 341 340 338 333 329 325 323 324 323 318 316 318 319 320 323 323 322 321 322 322 321 323 324 322 323 324 326
200 268 278 113 143 150 200 225 152 202 314 329 331 325 15 37 347 347 346 341 334 328 324 325 327 324 319 320 322 325 326 323 322 323 323 322 319 321 321 320 320 322 321 324
220 250 275 125 143 165 229 57 139 179 317 326 328 326 348 352 353 353 346 340 334 327 326 328 327 323 320 322 327 328 324 322 323 325 324 320 321 321 320 320 320 320 321 324
195 230 258 141 158 197 99 113 143 153 109 316 322 341 350 355 354 350 343 338 335 329 326 327 325 324 323 328 329 326 325 325 327 327 326 323 324 324 324 323 321 321 322 325
208 233 82 163 163 122 128 142 143 143 132 126 42 11 1 354 350 344 338 335 333 326 323 326 330 331 329 330 329 328 327 329 329 329 329 329 329 329 328 327 324 321 321 325
247 236 184 170 145 138 136 129 125 124 126 122 110 58 11 355 347 340 335 332 329 325 325 327 333 335 334 331 330 329 330 332 333 333 334 337 337 337 336 334 330 329 334 336
239 186 155 176 170 151 133 127 127 121 117 116 118 88 21 349 341 333 326 326 324 323 320 327 333 335 336 336 335 333 332 335 336 336 340 342 344 343 343 341 343 347 347 344
214 177 171 172 163 152 147 147 145 140 131 114 104 99 24 344 330 320 318 320 320 321 326 330 332 334 338 340 338 335 336 339 338 342 345 345 342 341 346 348 351 355 357 358
111 126 117 128 139 145 140 139 141 140 138 135 121 101 13 328 315 313 313 321 323 324 326 328 332 335 341 342 338 338 340 339 340 345 346 344 344 344 344 348 355 1 3 3
136 125 127 144 147 141 132 129 125 121 120 126 130 120 342 315 311 317 323 322 320 321 326 331 334 338 342 340 338 340 341 343 346 345 345 344 346 347 348 348 351 359 3 6
161 140 140 136 131 130 132 137 141 142 145 143 143 154 302 311 313 315 317 322 322 326 334 336 336 337 340 339 339 339 343 346 345 345 346 346 348 350 352 352 354 355 358 2
141 123 132 140 146 150 155 162 163 162 162 164 175 206 283 294 295 303 322 333 328 327 328 330 332 334 337 340 339 339 343 346 349 346 348 350 352 354 354 354 355 356 358 353
144 150 155 160 165 170 174 175 169 160 162 170 180 213 279 298 308 330 337 334 318 307 316 331 331 329 338 341 338 338 338 338 345 346 351 351 353 353 352 352 354 355 356 358
171 166 169 169 170 169 168 162 156 154 160 166 167 204 261 316 332 327 325 323 322 329 347 343 329 335 339 338 340 337 333 333 338 342 346 348 350 347 347 347 348 351 348 349
158 155 156 157 158 157 156 155 153 149 151 159 175 197 253 295 308 311 315 321 333 341 339 328 333 340 335 340 345 334 331 332 335 337 340 341 343 342 341 341 340 340 339 338
142 140 136 133 134 141 148 148 148 151 159 164 175 202 243 288 307 311 309 301 324 316 306 324 337 334 333 340 346 335 331 332 332 333 335 336 334 333 332 330 328 326 325 323
146 143 141 141 141 145 151 153 156 159 161 172 185 204 254 290 304 309 308 329 346 326 325 340 337 329 338 347 343 335 335 334 332 333 332 331 328 325 321 318 314 311 309 307
153 153 153 151 149 149 152 154 156 157 162 175 189 210 251 287 310 306 272 287 319 326 335 337 329 340 352 350 338 336 337 335 333 332 333 332 329 323 318 313 304 298 295 292
159 158 158 159 156 149 148 156 163 166 174 183 192 207 234 279 297 304 317 322 323 329 341 334 337 348 354 349 338 338 339 338 336 335 335 333 330 327 321 315 306 295 287 283
159 157 153 144 140 147 162 171 171 173 179 191 203 217 238 266 270 255 287 311 323 331 338 337 347 353 355 347 340 340 340 338 336 337 336 334 333 332 330 324 316 309 297 287
155 148 147 153 164 174 171 162 164 173 185 202 215 219 225 237 262 293 303 308 320 332 335 340 351 354 353 342 341 339 337 337 340 340 337 335 335 335 334 335 332 323 314 304
159 164 169 178 175 164 160 166 175 181 185 193 202 206 212 224 248 269 285 303 319 336 340 338 342 346 345 342 339 337 335 335 338 338 337 336 335 336 336 338 338 338 332 325
152 152 155 165 171 171 169 175 180 183 186 189 189 190 198 212 232 256 284 309 327 334 339 342 342 341 340 340 337 337 335 336 337 338 338 336 335 334 337 339 341 341 341 340